www.pogodaiklimat.ru

Погода и климат >> Архив погоды >> Россия >> Якутия >> Екюччю


ПОГОДА в Екюччю

  • Прогноз погоды в Екюччю
  • Монитор погоды в Екюччю

АРХИВ ПОГОДЫ в Екюччю

Время (UTC), дата Ветер
(напр.,м/с)
 
Видим.   Явления Облачность Т
(С)
Тd
(С)
f
(%)
Тe
(С)
Тes
(С)
Комфортность P
(гПа)
Po
(гПа)
Тmin
(С)
Tmax
(С)
R
(мм)
R24
(мм)
S
(см)
18 16.09 штиль 0 50 км 3/0
[Ci fib]
-9.4 -10.6 91 -10 -10 1014.6 988.7
21 16.09 штиль 0 500 м туман ?/? -6.7 -6.8 99 -8 -8 1015.0 989.4 -9.9
00 17.09 штиль 0 1000 м туман ?/? -2.4 -2.7 98 -4 -4 1014.8 989.6
03 17.09 СЗ 1 50 км {туман} 10/9 300 м
[St Ac trans]
+0.3 -0.8 92 -2 -2 1014.1 989.1
06 17.09 СВ 2 50 км 10/0
[Ac As]
+4.4 +1.9 84 +2 +2 1012.8 988.2
09 17.09 С 4 50 км 10/8 1000 м
[Sc Ci fib]
+4.1 +0.1 75 -0 -0 1013.1 988.5 +4.8
12 17.09 С 2 50 км 10/10 1000 м
[Sc]
+2.8 +0.7 86 -0 -0 1013.7 988.9
15 17.09 штиль 0 20 км слаб. морось 10/10 300 м
[St]
+1.6 +1.3 98 0 0 1013.3 988.4
18 17.09 штиль 0 20 км слаб. дождь {морось} 10/10 300 м
[St]
+1.3 +1.3 100 -0 -0 1013.1 988.2
21 17.09 З 1 20 км слаб. дождь 10/10 300 м
[St]
+1.7 +1.7 100 -0 -0 1013.0 988.1 +1.2 0.5
00 18.09 штиль 0 20 км слаб. морось {дождь} 10/10 300 м
[St]
+3.1 +2.6 97 +2 +2 1012.9 988.2
03 18.09 С 1 50 км {морось} 10/10 300 м
[St]
+4.7 +2.7 87 +3 +3 1013.2 988.6
06 18.09 штиль 0 20 км слаб. дождь {морось} 10/10 1000 м
[Sc]
+5.1 +3.9 92 +4 +4 1013.1 988.6
09 18.09 СЗ 1 20 км слаб. дождь 10/10 1000 м
[Sc]
+4.4 +3.7 95 +3 +3 1013.7 989.1 +5.5 0.6
12 18.09 штиль 0 20 км слаб. дождь 10/10 1000 м
[Sc]
+4.1 +3.6 97 +3 +3 1014.2 989.6
15 18.09 штиль 0 20 км слаб. дождь 10/10 1000 м
[Sc]
+2.8 +2.5 98 +2 +2 1014.3 989.6
18 18.09 штиль 0 20 км слаб. дождь 10/10 1000 м
[Sc]
+2.6 +2.3 98 +1 +1 1014.2 989.4
21 18.09 З 2 10 км морось {дождь} 10/10 300 м
[St]
+1.7 +1.7 100 -2 -2 1014.2 989.3 +1.1 6
00 19.09 штиль 0 50 км {дождь, морось} 10/10 300 м
[St]
+3.0 +2.8 99 +2 +2 1014.3 989.6
03 19.09 ЮВ 2 50 км 10/10 1000 м
[Sc]
+4.6 +2.1 84 +2 +2 1014.5 989.9
06 19.09 Ю 3 50 км {ливн. осадки} 8/8 600 м
[Cb cap]
+6.6 +1.4 69 +4 +4 1013.9 989.5
09 19.09 штиль 0 50 км 3/1 1000 м
[Sc diur, vesp Ci fib]
+2.6 +0.2 84 +2 +2 1015.6 990.8 +7.3 0.1
12 19.09 штиль 0 50 км ясно -2.6 -4.2 89 -4 -4 1016.8 991.6
15 19.09 штиль 0 50 км ясно -6.3 -7.1 94 -7 -7 1017.7 992.1
18 19.09 штиль 0 50 км ясно -8.9 -9.6 95 -10 -10 1018.2 992.3
21 19.09 штиль 0 50 км 6/0
[Ac trans Ci fib]
-9.6 -10.4 94 -10 -10 1018.3 992.4 -9.6
00 20.09 штиль 0 50 км 10/0
[Ac As]
-5.1 -7.2 85 -6 -5 1017.7 992.2
03 20.09 Ю 1 50 км 10/0
[As op]
+1.9 -0.9 82 0 +1 1015.8 991.0
06 20.09 штиль 0 50 км 10/0
[As op]
+3.6 +0.2 78 +3 +3 1014.3 989.6
09 20.09 Ю 2 50 км 10/0
[Ac trans]
+3.3 +0.4 81 0 0 1013.6 988.9 +3.9
12 20.09 ЮЗ 2 20 км слаб. дождь 10/0
[As op]
+0.7 +0.4 98 -3 -3 1013.9 988.9
15 20.09 Ю 2 20 км слаб. дождь 10/0
[As op]
+0.7 +0.4 98 -3 -3 1013.3 988.3
18 20.09 Ю 1 50 км 10/0
[]
+0.5 +0.2 98 -2 -2 1013.3 988.3
21 20.09 ЮВ 4 50 км 9/9 300 м
[St]
+0.7 -0.4 92 -5 -5 1013.8 988.8 +0.5 0.6
00 21.09 Ю 4 50 км {снег} 9/9 1000 м
[Sc]
+0.6 -1.1 88 -5 -5 1014.1 989.1 +0.3
03 21.09 Ю 3 50 км 3/3 600 м
[Cu hum]
+4.1 +0.4 77 +1 +2 1013.0 988.4
06 21.09 Ю 2 50 км 8/8 600 м
[Cu Sc]
+5.3 +0.7 72 +3 +3 1012.6 988.1
09 21.09 Ю 2 50 км 1/1 1000 м
[Sc diur, vesp]
+5.0 0.0 70 +3 +3 1012.7 988.2 +5.8 0.0
12 21.09 штиль 0 50 км ясно -4.8 -7.2 83 -6 -6 1013.6 988.2
15 21.09 штиль 0 50 км ясно -7.8 -9.2 90 -9 -9 1013.1 987.4
18 21.09 штиль 0 50 км ясно -9.6 -10.4 94 -10 -10 1012.1 986.3
21 21.09 штиль 0 50 км ясно -11.6 -12.2 95 -12 -12 1010.8 984.8 -11.8
00 22.09 Ю 1 50 км 8/0
[Ac lent]
-6.1 -7.6 89 -9 -8 1008.7 983.2
03 22.09 Ю 1 50 км 10/0
[Ac As]
-1.7 -5.1 78 -4 -3 1007.2 982.3
06 22.09 Ю 1 50 км 10/0 1000 м
[As op]
+1.0 -3.2 74 -1 -0 1006.5 981.9
09 22.09 Ю 3 50 км 10/4 1000 м
[Sc Ac As]
+2.3 -2.3 72 -2 -2 1004.7 980.2 +2.7
12 22.09 Ю 4 50 км 5/5 1000 м
[Sc]
+0.7 -1.9 83 -5 -5 1005.2 980.5
15 22.09 ЮЗ 6 50 км 8/8 1000 м
[Sc diur, vesp]
+0.6 -2.0 83 -6 -6 1004.7 980.0
18 22.09 Ю 3 50 км 9/9 1000 м
[Sc]
+0.3 -2.0 85 -4 -4 1004.3 979.6
21 22.09 ЮВ 4 50 км 8/8 1000 м
[Sc Ci fib]
+1.0 -1.6 83 -4 -4 1006.0 981.4 -0.3
00 23.09 Ю 4 50 км 8/8 1000 м
[Sc]
+3.2 -0.9 74 -1 -1 1006.3 981.8
03 23.09 З 1 50 км 8/3 1000 м
[Sc diur, vesp Ci fib]
+7.8 +0.8 61 +7 +9 1006.7 982.6
06 23.09 З 3 50 км 8/6 600 м
[Cb cap Ci fib]
+9.9 0.0 50 +8 +9 1007.2 983.2
09 23.09 штиль 0 50 км 9/8 600 м
[Sc diur, vesp Ac lent]
+7.5 +0.7 62 +7 +7 1009.3 985.1 +10.6
12 23.09 штиль 0 50 км 9/9 1000 м
[Sc diur, vesp]
+4.8 -1.2 65 +4 +4 1011.7 987.2

 

Местоположение метеостанции Екюччю (Якутия, Россия): широта 66.77 долгота 131.60 высота над уровнем моря 200 м.

В архиве по умолчанию представлена погода в Екюччю за последнюю неделю. Архивные данные за месяц целиком и за предыдущие месяцы, начиная с января 2011 года, Вы можете получить, выбрав интересующий диапазон дат из раскрывающегося списка и нажав кнопку "Ввод!".


*Определитесь, кто Вы:
робот инопланетянин человек

Внимание! Время в таблицах - всемирное. Для получения местного времени необходимо прибавить поправку, которая равна 10 ч.

Смотрите также архив погоды в соседних городах и на ближайших метеорологических станциях:

Погода в Верхоянске (Якутия, Россия) (118 км)
Погода в Батагай-Алыте (Якутия, Россия) (124 км)
Погода в Батагае (Якутия, Россия) (162 км)
Погода в Себян-Кюеле (Якутия, Россия) (179 км)
Погода в Усть-Чарках (Якутия, Россия) (219 км)
Погода в Иэме (Якутия, Россия) (250 км)
Погода в Сеген-Кюеле (Якутия, Россия) (314 км)
Погода в Жиганске (Якутия, Россия) (364 км)
Погода в Сого-Хае (Якутия, Россия) (366 км)
Погода в Сангаре (Якутия, Россия) (369 км)

Пояснения к столбцам:

Ветер - указаны скорость ветра в м/с - средняя за 10 мин, порывы в срок и между сроками (в фигурных скобках) и направление, откуда дует ветер: С - северный, СВ - северо-восточный, В - восточный, ЮВ - юго-восточный, Ю - южный, ЮЗ - юго-западный, З - западный, СЗ - северо-западный.
Видимость - горизонтальная дальность видимости в метрах или километрах. При видимости от 1 до 10 км при отсутствии осадков обычно наблюдается дымка, при ухудшении видимости до 1 км и менее - туман. В сухую погоду видимость может ухудшаться дымом, пылью или мглою.
Явления - указаны атмосферные явления, наблюдавшиеся в срок или в последний час перед сроком; фигурными скобками обозначены явления, наблюдавшиеся между сроками (за 1-3 часа до срока); квадратными скобками обозначены град или гололедные отложения с указанием их диаметра в мм.
Облачность - указаны через наклонную черту общая и нижняя облачность в баллах и высота нижней границы облаков в метрах; квадратными скобками обозначены формы облаков: Ci - перистые, Cs - перисто-слоистые, Cc - перисто-кучевые, Ac - высококучевые, As - высокослоистые, Sc - слоисто-кучевые, Ns - слоисто-дождевые, Cu - кучевые, Cb - кучево-дождевые. Подробнее классификацию облаков см. в Атласе облаков (PDF).
T - Температура воздуха - температура, измеренная на высоте 2 м над землей.
Td - Температура точки росы - температура, при понижении до которой содержащийся в воздухе водяной пар достигнет насыщения.
f - Относительная влажность воздуха - влажноcть воздуха, измеренная на высоте 2 м над землей.
Te - Эффективная температура - температура, которую ощущает одетый по сезону человек в тени. Характеристика душности погоды. При расчете учитывается влияние влажности воздуха и скорости ветра на теплоощущения человека.
Tes - Эффективная температура на солнце - температура, которую ощущает человек, с поправкой на солнечный нагрев. Характеристика знойности погоды. Зависит от высоты солнца над горизонтом, облачности и скорости ветра. Ночью, в пасмурную погоду, а также при ветре 12 м/с и более поправка равна нулю.
P - Атмосферное давление - приведенное к уровню моря атмосферное давление.
Po - Атмосферное давление - измеренное на уровне метеостанции атмосферное давление.
Tmin - Минимальная температура - минимум температуры воздуха на высоте 2 м над землей.
Tmax - Максимальная температура - максимум температуры воздуха на высоте 2 м над землей.
R - Количество осадков - Количество выпавших осадков за период времени, мм. При наведении курсора мыши на число - период времени, за который выпало указанное количество осадков.
R24 - Количество осадков - Количество выпавших осадков за 24 часа, мм.
S - Снежный покров - Высота снежного покрова, см. При наведении курсора мыши на число - состояние снежного покрова и степень покрытия местности в баллах.